Data supplied by UK-AIR on 5/4/2008
All Data GMT hour ending 
Status: R =Ratified P=Provisional,P*=As supplied
,,Sibton,,,,,,,,,,,,,,,,,,,,,,,
Date,time,"Ozone",status,unit
 
01-01-1990,01:00,6,R,ugm-3
01-01-1990,02:00,6,R,ugm-3
01-01-1990,03:00,6,R,ugm-3
01-01-1990,04:00,4,R,ugm-3
01-01-1990,05:00,4,R,ugm-3
01-01-1990,06:00,4,R,ugm-3
01-01-1990,07:00,6,R,ugm-3
01-01-1990,08:00,8,R,ugm-3
01-01-1990,09:00,10,R,ugm-3
01-01-1990,10:00,18,R,ugm-3
01-01-1990,11:00,20,R,ugm-3
01-01-1990,12:00,20,R,ugm-3
01-01-1990,13:00,18,R,ugm-3
01-01-1990,14:00,18,R,ugm-3
01-01-1990,15:00,16,R,ugm-3
01-01-1990,16:00,16,R,ugm-3
01-01-1990,17:00,16,R,ugm-3
01-01-1990,18:00,16,R,ugm-3
01-01-1990,19:00,14,R,ugm-3
01-01-1990,20:00,16,R,ugm-3
01-01-1990,21:00,20,R,ugm-3
01-01-1990,22:00,20,R,ugm-3
01-01-1990,23:00,26,R,ugm-3
01-01-1990,24:00,26,R,ugm-3
02-01-1990,01:00,22,R,ugm-3
02-01-1990,02:00,20,R,ugm-3
02-01-1990,03:00,16,R,ugm-3
02-01-1990,04:00,12,R,ugm-3
02-01-1990,05:00,16,R,ugm-3
02-01-1990,06:00,22,R,ugm-3
02-01-1990,07:00,24,R,ugm-3
02-01-1990,08:00,28,R,ugm-3
02-01-1990,09:00,28,R,ugm-3
02-01-1990,10:00,24,R,ugm-3
02-01-1990,11:00,26,R,ugm-3
02-01-1990,12:00,24,R,ugm-3
02-01-1990,13:00,24,R,ugm-3
02-01-1990,14:00,26,R,ugm-3
02-01-1990,15:00,26,R,ugm-3
02-01-1990,16:00,28,R,ugm-3
02-01-1990,17:00,40,R,ugm-3
02-01-1990,18:00,38,R,ugm-3
02-01-1990,19:00,28,R,ugm-3
02-01-1990,20:00,38,R,ugm-3
02-01-1990,21:00,42,R,ugm-3
02-01-1990,22:00,40,R,ugm-3
02-01-1990,23:00,36,R,ugm-3
02-01-1990,24:00,18,R,ugm-3
03-01-1990,01:00,22,R,ugm-3
03-01-1990,02:00,22,R,ugm-3
03-01-1990,03:00,26,R,ugm-3
03-01-1990,04:00,32,R,ugm-3
03-01-1990,05:00,28,R,ugm-3
03-01-1990,06:00,26,R,ugm-3
03-01-1990,07:00,28,R,ugm-3
03-01-1990,08:00,28,R,ugm-3
03-01-1990,09:00,30,R,ugm-3
03-01-1990,10:00,28,R,ugm-3
03-01-1990,11:00,40,R,ugm-3
03-01-1990,12:00,32,R,ugm-3
03-01-1990,13:00,30,R,ugm-3
03-01-1990,14:00,26,R,ugm-3
03-01-1990,15:00,28,R,ugm-3
03-01-1990,16:00,32,R,ugm-3
03-01-1990,17:00,26,R,ugm-3
03-01-1990,18:00,20,R,ugm-3
03-01-1990,19:00,20,R,ugm-3
03-01-1990,20:00,16,R,ugm-3
03-01-1990,21:00,8,R,ugm-3
03-01-1990,22:00,12,R,ugm-3
03-01-1990,23:00,12,R,ugm-3
03-01-1990,24:00,18,R,ugm-3
04-01-1990,01:00,16,R,ugm-3
04-01-1990,02:00,14,R,ugm-3
04-01-1990,03:00,14,R,ugm-3
04-01-1990,04:00,18,R,ugm-3
04-01-1990,05:00,18,R,ugm-3
04-01-1990,06:00,16,R,ugm-3
04-01-1990,07:00,18,R,ugm-3
04-01-1990,08:00,8,R,ugm-3
04-01-1990,09:00,4,R,ugm-3
04-01-1990,10:00,8,R,ugm-3
04-01-1990,11:00,14,R,ugm-3
04-01-1990,12:00,16,R,ugm-3
04-01-1990,13:00,12,R,ugm-3
04-01-1990,14:00,12,R,ugm-3
04-01-1990,15:00,8,R,ugm-3
04-01-1990,16:00,8,R,ugm-3
04-01-1990,17:00,8,R,ugm-3
04-01-1990,18:00,6,R,ugm-3
04-01-1990,19:00,8,R,ugm-3
04-01-1990,20:00,8,R,ugm-3
04-01-1990,21:00,8,R,ugm-3
04-01-1990,22:00,6,R,ugm-3
04-01-1990,23:00,8,R,ugm-3
04-01-1990,24:00,8,R,ugm-3
05-01-1990,01:00,8,R,ugm-3
05-01-1990,02:00,6,R,ugm-3
05-01-1990,03:00,6,R,ugm-3
05-01-1990,04:00,4,R,ugm-3
05-01-1990,05:00,6,R,ugm-3
05-01-1990,06:00,6,R,ugm-3
05-01-1990,07:00,6,R,ugm-3
05-01-1990,08:00,6,R,ugm-3
05-01-1990,09:00,6,R,ugm-3
05-01-1990,10:00,14,R,ugm-3
05-01-1990,11:00,18,R,ugm-3
05-01-1990,12:00,20,R,ugm-3
05-01-1990,13:00,20,R,ugm-3
05-01-1990,14:00,14,R,ugm-3
05-01-1990,15:00,16,R,ugm-3
05-01-1990,16:00,18,R,ugm-3
05-01-1990,17:00,14,R,ugm-3
05-01-1990,18:00,12,R,ugm-3
05-01-1990,19:00,14,R,ugm-3
05-01-1990,20:00,18,R,ugm-3
05-01-1990,21:00,24,R,ugm-3
05-01-1990,22:00,30,R,ugm-3
05-01-1990,23:00,34,R,ugm-3
05-01-1990,24:00,34,R,ugm-3
06-01-1990,01:00,32,R,ugm-3
06-01-1990,02:00,28,R,ugm-3
06-01-1990,03:00,30,R,ugm-3
06-01-1990,04:00,32,R,ugm-3
06-01-1990,05:00,36,R,ugm-3
06-01-1990,06:00,32,R,ugm-3
06-01-1990,07:00,28,R,ugm-3
06-01-1990,08:00,28,R,ugm-3
06-01-1990,09:00,28,R,ugm-3
06-01-1990,10:00,32,R,ugm-3
06-01-1990,11:00,36,R,ugm-3
06-01-1990,12:00,32,R,ugm-3
06-01-1990,13:00,32,R,ugm-3
06-01-1990,14:00,28,R,ugm-3
06-01-1990,15:00,28,R,ugm-3
06-01-1990,16:00,26,R,ugm-3
06-01-1990,17:00,26,R,ugm-3
06-01-1990,18:00,22,R,ugm-3
06-01-1990,19:00,26,R,ugm-3
06-01-1990,20:00,22,R,ugm-3
06-01-1990,21:00,22,R,ugm-3
06-01-1990,22:00,22,R,ugm-3
06-01-1990,23:00,18,R,ugm-3
06-01-1990,24:00,6,R,ugm-3
07-01-1990,01:00,4,R,ugm-3
07-01-1990,02:00,12,R,ugm-3
07-01-1990,03:00,24,R,ugm-3
07-01-1990,04:00,32,R,ugm-3
07-01-1990,05:00,30,R,ugm-3
07-01-1990,06:00,30,R,ugm-3
07-01-1990,07:00,24,R,ugm-3
07-01-1990,08:00,18,R,ugm-3
07-01-1990,09:00,14,R,ugm-3
07-01-1990,10:00,14,R,ugm-3
07-01-1990,11:00,18,R,ugm-3
07-01-1990,12:00,26,R,ugm-3
07-01-1990,13:00,32,R,ugm-3
07-01-1990,14:00,20,R,ugm-3
07-01-1990,15:00,10,R,ugm-3
07-01-1990,16:00,16,R,ugm-3
07-01-1990,17:00,8,R,ugm-3
07-01-1990,18:00,8,R,ugm-3
07-01-1990,19:00,8,R,ugm-3
07-01-1990,20:00,6,R,ugm-3
07-01-1990,21:00,6,R,ugm-3
07-01-1990,22:00,4,R,ugm-3
07-01-1990,23:00,6,R,ugm-3
07-01-1990,24:00,8,R,ugm-3
08-01-1990,01:00,14,R,ugm-3
08-01-1990,02:00,18,R,ugm-3
08-01-1990,03:00,24,R,ugm-3
08-01-1990,04:00,26,R,ugm-3
08-01-1990,05:00,28,R,ugm-3
08-01-1990,06:00,34,R,ugm-3
08-01-1990,07:00,32,R,ugm-3
08-01-1990,08:00,24,R,ugm-3
08-01-1990,09:00,20,R,ugm-3
08-01-1990,10:00,20,R,ugm-3
08-01-1990,11:00,22,R,ugm-3
08-01-1990,12:00,28,R,ugm-3
08-01-1990,13:00,30,R,ugm-3
08-01-1990,14:00,30,R,ugm-3
08-01-1990,15:00,32,R,ugm-3
08-01-1990,16:00,26,R,ugm-3
08-01-1990,17:00,20,R,ugm-3
08-01-1990,18:00,14,R,ugm-3
08-01-1990,19:00,8,R,ugm-3
08-01-1990,20:00,8,R,ugm-3
08-01-1990,21:00,8,R,ugm-3
08-01-1990,22:00,6,R,ugm-3
08-01-1990,23:00,4,R,ugm-3
08-01-1990,24:00,4,R,ugm-3
09-01-1990,01:00,6,R,ugm-3
09-01-1990,02:00,6,R,ugm-3
09-01-1990,03:00,8,R,ugm-3
09-01-1990,04:00,6,R,ugm-3
09-01-1990,05:00,6,R,ugm-3
09-01-1990,06:00,4,R,ugm-3
09-01-1990,07:00,4,R,ugm-3
09-01-1990,08:00,4,R,ugm-3
09-01-1990,09:00,12,R,ugm-3
09-01-1990,10:00,16,R,ugm-3
09-01-1990,11:00,16,R,ugm-3
09-01-1990,12:00,20,R,ugm-3
09-01-1990,13:00,28,R,ugm-3
09-01-1990,14:00,30,R,ugm-3
09-01-1990,15:00,28,R,ugm-3
09-01-1990,16:00,30,R,ugm-3
09-01-1990,17:00,28,R,ugm-3
09-01-1990,18:00,24,R,ugm-3
09-01-1990,19:00,18,R,ugm-3
09-01-1990,20:00,12,R,ugm-3
09-01-1990,21:00,6,R,ugm-3
09-01-1990,22:00,4,R,ugm-3
09-01-1990,23:00,4,R,ugm-3
09-01-1990,24:00,4,R,ugm-3
10-01-1990,01:00,4,R,ugm-3
10-01-1990,02:00,4,R,ugm-3
10-01-1990,03:00,4,R,ugm-3
10-01-1990,04:00,14,R,ugm-3
10-01-1990,05:00,24,R,ugm-3
10-01-1990,06:00,28,R,ugm-3
10-01-1990,07:00,34,R,ugm-3
10-01-1990,08:00,34,R,ugm-3
10-01-1990,09:00,34,R,ugm-3
10-01-1990,10:00,36,R,ugm-3
10-01-1990,11:00,32,R,ugm-3
10-01-1990,12:00,32,R,ugm-3
10-01-1990,13:00,30,R,ugm-3
10-01-1990,14:00,32,R,ugm-3
10-01-1990,15:00,34,R,ugm-3
10-01-1990,16:00,26,R,ugm-3
10-01-1990,17:00,12,R,ugm-3
10-01-1990,18:00,10,R,ugm-3
10-01-1990,19:00,8,R,ugm-3
10-01-1990,20:00,8,R,ugm-3
10-01-1990,21:00,12,R,ugm-3
10-01-1990,22:00,10,R,ugm-3
10-01-1990,23:00,8,R,ugm-3
10-01-1990,24:00,16,R,ugm-3
11-01-1990,01:00,16,R,ugm-3
11-01-1990,02:00,20,R,ugm-3
11-01-1990,03:00,26,R,ugm-3
11-01-1990,04:00,32,R,ugm-3
11-01-1990,05:00,34,R,ugm-3
11-01-1990,06:00,42,R,ugm-3
11-01-1990,07:00,44,R,ugm-3
11-01-1990,08:00,46,R,ugm-3
11-01-1990,09:00,44,R,ugm-3
11-01-1990,10:00,42,R,ugm-3
11-01-1990,11:00,38,R,ugm-3
11-01-1990,12:00,38,R,ugm-3
11-01-1990,13:00,46,R,ugm-3
11-01-1990,14:00,44,R,ugm-3
11-01-1990,15:00,36,R,ugm-3
11-01-1990,16:00,16,R,ugm-3
11-01-1990,17:00,10,R,ugm-3
11-01-1990,18:00,12,R,ugm-3
11-01-1990,19:00,14,R,ugm-3
11-01-1990,20:00,24,R,ugm-3
11-01-1990,21:00,24,R,ugm-3
11-01-1990,22:00,28,R,ugm-3
11-01-1990,23:00,30,R,ugm-3
11-01-1990,24:00,38,R,ugm-3
12-01-1990,01:00,44,R,ugm-3
12-01-1990,02:00,42,R,ugm-3
12-01-1990,03:00,44,R,ugm-3
12-01-1990,04:00,42,R,ugm-3
12-01-1990,05:00,36,R,ugm-3
12-01-1990,06:00,40,R,ugm-3
12-01-1990,07:00,46,R,ugm-3
12-01-1990,08:00,44,R,ugm-3
12-01-1990,09:00,42,R,ugm-3
12-01-1990,10:00,42,R,ugm-3
12-01-1990,11:00,38,R,ugm-3
12-01-1990,12:00,40,R,ugm-3
12-01-1990,13:00,42,R,ugm-3
12-01-1990,14:00,46,R,ugm-3
12-01-1990,15:00,48,R,ugm-3
12-01-1990,16:00,46,R,ugm-3
12-01-1990,17:00,38,R,ugm-3
12-01-1990,18:00,36,R,ugm-3
12-01-1990,19:00,28,R,ugm-3
12-01-1990,20:00,30,R,ugm-3
12-01-1990,21:00,24,R,ugm-3
12-01-1990,22:00,30,R,ugm-3
12-01-1990,23:00,28,R,ugm-3
12-01-1990,24:00,42,R,ugm-3
13-01-1990,01:00,42,R,ugm-3
13-01-1990,02:00,40,R,ugm-3
13-01-1990,03:00,30,R,ugm-3
13-01-1990,04:00,28,R,ugm-3
13-01-1990,05:00,30,R,ugm-3
13-01-1990,06:00,16,R,ugm-3
13-01-1990,07:00,10,R,ugm-3
13-01-1990,08:00,6,R,ugm-3
13-01-1990,09:00,10,R,ugm-3
13-01-1990,10:00,16,R,ugm-3
13-01-1990,11:00,24,R,ugm-3
13-01-1990,12:00,28,R,ugm-3
13-01-1990,13:00,32,R,ugm-3
13-01-1990,14:00,32,R,ugm-3
13-01-1990,15:00,24,R,ugm-3
13-01-1990,16:00,24,R,ugm-3
13-01-1990,17:00,22,R,ugm-3
13-01-1990,18:00,20,R,ugm-3
13-01-1990,19:00,8,R,ugm-3
13-01-1990,20:00,6,R,ugm-3
13-01-1990,21:00,6,R,ugm-3
13-01-1990,22:00,8,R,ugm-3
13-01-1990,23:00,8,R,ugm-3
13-01-1990,24:00,10,R,ugm-3
14-01-1990,01:00,8,R,ugm-3
14-01-1990,02:00,8,R,ugm-3
14-01-1990,03:00,6,R,ugm-3
14-01-1990,04:00,6,R,ugm-3
14-01-1990,05:00,6,R,ugm-3
14-01-1990,06:00,20,R,ugm-3
14-01-1990,07:00,24,R,ugm-3
14-01-1990,08:00,30,R,ugm-3
14-01-1990,09:00,32,R,ugm-3
14-01-1990,10:00,38,R,ugm-3
14-01-1990,11:00,42,R,ugm-3
14-01-1990,12:00,38,R,ugm-3
14-01-1990,13:00,36,R,ugm-3
14-01-1990,14:00,34,R,ugm-3
14-01-1990,15:00,32,R,ugm-3
14-01-1990,16:00,32,R,ugm-3
14-01-1990,17:00,28,R,ugm-3
14-01-1990,18:00,22,R,ugm-3
14-01-1990,19:00,10,R,ugm-3
14-01-1990,20:00,4,R,ugm-3
14-01-1990,21:00,6,R,ugm-3
14-01-1990,22:00,4,R,ugm-3
14-01-1990,23:00,6,R,ugm-3
14-01-1990,24:00,6,R,ugm-3
15-01-1990,01:00,4,R,ugm-3
15-01-1990,02:00,4,R,ugm-3
15-01-1990,03:00,8,R,ugm-3
15-01-1990,04:00,24,R,ugm-3
15-01-1990,05:00,38,R,ugm-3
15-01-1990,06:00,44,R,ugm-3
15-01-1990,07:00,48,R,ugm-3
15-01-1990,08:00,46,R,ugm-3
15-01-1990,09:00,42,R,ugm-3
15-01-1990,10:00,36,R,ugm-3
15-01-1990,11:00,32,R,ugm-3
15-01-1990,12:00,32,R,ugm-3
15-01-1990,13:00,38,R,ugm-3
15-01-1990,14:00,38,R,ugm-3
15-01-1990,15:00,30,R,ugm-3
15-01-1990,16:00,20,R,ugm-3
15-01-1990,17:00,12,R,ugm-3
15-01-1990,18:00,18,R,ugm-3
15-01-1990,19:00,24,R,ugm-3
15-01-1990,20:00,22,R,ugm-3
15-01-1990,21:00,22,R,ugm-3
15-01-1990,22:00,24,R,ugm-3
15-01-1990,23:00,24,R,ugm-3
15-01-1990,24:00,38,R,ugm-3
16-01-1990,01:00,44,R,ugm-3
16-01-1990,02:00,50,R,ugm-3
16-01-1990,03:00,50,R,ugm-3
16-01-1990,04:00,50,R,ugm-3
16-01-1990,05:00,50,R,ugm-3
16-01-1990,06:00,52,R,ugm-3
16-01-1990,07:00,44,R,ugm-3
16-01-1990,08:00,42,R,ugm-3
16-01-1990,09:00,38,R,ugm-3
16-01-1990,10:00,30,R,ugm-3
16-01-1990,11:00,24,R,ugm-3
16-01-1990,12:00,10,R,ugm-3
16-01-1990,13:00,14,R,ugm-3
16-01-1990,14:00,16,R,ugm-3
16-01-1990,15:00,32,R,ugm-3
16-01-1990,16:00,32,R,ugm-3
16-01-1990,17:00,38,R,ugm-3
16-01-1990,18:00,54,R,ugm-3
16-01-1990,19:00,48,R,ugm-3
16-01-1990,20:00,46,R,ugm-3
16-01-1990,21:00,54,R,ugm-3
16-01-1990,22:00,48,R,ugm-3
16-01-1990,23:00,52,R,ugm-3
16-01-1990,24:00,44,R,ugm-3
17-01-1990,01:00,50,R,ugm-3
17-01-1990,02:00,48,R,ugm-3
17-01-1990,03:00,54,R,ugm-3
17-01-1990,04:00,64,R,ugm-3
17-01-1990,05:00,62,R,ugm-3
17-01-1990,06:00,58,R,ugm-3
17-01-1990,07:00,56,R,ugm-3
17-01-1990,08:00,52,R,ugm-3
17-01-1990,09:00,52,R,ugm-3
17-01-1990,10:00,52,R,ugm-3
17-01-1990,11:00,52,R,ugm-3
17-01-1990,12:00,56,R,ugm-3
17-01-1990,13:00,56,R,ugm-3
17-01-1990,14:00,56,R,ugm-3
17-01-1990,15:00,58,R,ugm-3
17-01-1990,16:00,56,R,ugm-3
17-01-1990,17:00,54,R,ugm-3
17-01-1990,18:00,48,R,ugm-3
17-01-1990,19:00,46,R,ugm-3
17-01-1990,20:00,40,R,ugm-3
17-01-1990,21:00,28,R,ugm-3
17-01-1990,22:00,32,R,ugm-3
17-01-1990,23:00,32,R,ugm-3
17-01-1990,24:00,36,R,ugm-3
18-01-1990,01:00,34,R,ugm-3
18-01-1990,02:00,28,R,ugm-3
18-01-1990,03:00,18,R,ugm-3
18-01-1990,04:00,16,R,ugm-3
18-01-1990,05:00,22,R,ugm-3
18-01-1990,06:00,32,R,ugm-3
18-01-1990,07:00,36,R,ugm-3
18-01-1990,08:00,34,R,ugm-3
18-01-1990,09:00,34,R,ugm-3
18-01-1990,10:00,36,R,ugm-3
18-01-1990,11:00,40,R,ugm-3
18-01-1990,12:00,46,R,ugm-3
18-01-1990,13:00,44,R,ugm-3
18-01-1990,14:00,46,R,ugm-3
18-01-1990,15:00,50,R,ugm-3
18-01-1990,16:00,40,R,ugm-3
18-01-1990,17:00,32,R,ugm-3
18-01-1990,18:00,26,R,ugm-3
18-01-1990,19:00,26,R,ugm-3
18-01-1990,20:00,20,R,ugm-3
18-01-1990,21:00,12,R,ugm-3
18-01-1990,22:00,4,R,ugm-3
18-01-1990,23:00,4,R,ugm-3
18-01-1990,24:00,6,R,ugm-3
19-01-1990,01:00,4,R,ugm-3
19-01-1990,02:00,4,R,ugm-3
19-01-1990,03:00,10,R,ugm-3
19-01-1990,04:00,30,R,ugm-3
19-01-1990,05:00,34,R,ugm-3
19-01-1990,06:00,42,R,ugm-3
19-01-1990,07:00,48,R,ugm-3
19-01-1990,08:00,48,R,ugm-3
19-01-1990,09:00,48,R,ugm-3
19-01-1990,10:00,38,R,ugm-3
19-01-1990,11:00,36,R,ugm-3
19-01-1990,12:00,38,R,ugm-3
19-01-1990,13:00,38,R,ugm-3
19-01-1990,14:00,44,R,ugm-3
19-01-1990,15:00,44,R,ugm-3
19-01-1990,16:00,40,R,ugm-3
19-01-1990,17:00,34,R,ugm-3
19-01-1990,18:00,32,R,ugm-3
19-01-1990,19:00,40,R,ugm-3
19-01-1990,20:00,40,R,ugm-3
19-01-1990,21:00,38,R,ugm-3
19-01-1990,22:00,44,R,ugm-3
19-01-1990,23:00,42,R,ugm-3
19-01-1990,24:00,38,R,ugm-3
20-01-1990,01:00,24,R,ugm-3
20-01-1990,02:00,20,R,ugm-3
20-01-1990,03:00,18,R,ugm-3
20-01-1990,04:00,12,R,ugm-3
20-01-1990,05:00,16,R,ugm-3
20-01-1990,06:00,24,R,ugm-3
20-01-1990,07:00,28,R,ugm-3
20-01-1990,08:00,32,R,ugm-3
20-01-1990,09:00,32,R,ugm-3
20-01-1990,10:00,36,R,ugm-3
20-01-1990,11:00,40,R,ugm-3
20-01-1990,12:00,44,R,ugm-3
20-01-1990,13:00,46,R,ugm-3
20-01-1990,14:00,44,R,ugm-3
20-01-1990,15:00,36,R,ugm-3
20-01-1990,16:00,24,R,ugm-3
20-01-1990,17:00,14,R,ugm-3
20-01-1990,18:00,16,R,ugm-3
20-01-1990,19:00,14,R,ugm-3
20-01-1990,20:00,6,R,ugm-3
20-01-1990,21:00,8,R,ugm-3
20-01-1990,22:00,12,R,ugm-3
20-01-1990,23:00,18,R,ugm-3
20-01-1990,24:00,26,R,ugm-3
21-01-1990,01:00,24,R,ugm-3
21-01-1990,02:00,22,R,ugm-3
21-01-1990,03:00,26,R,ugm-3
21-01-1990,04:00,28,R,ugm-3
21-01-1990,05:00,36,R,ugm-3
21-01-1990,06:00,40,R,ugm-3
21-01-1990,07:00,40,R,ugm-3
21-01-1990,08:00,40,R,ugm-3
21-01-1990,09:00,40,R,ugm-3
21-01-1990,10:00,38,R,ugm-3
21-01-1990,11:00,42,R,ugm-3
21-01-1990,12:00,46,R,ugm-3
21-01-1990,13:00,44,R,ugm-3
21-01-1990,14:00,40,R,ugm-3
21-01-1990,15:00,32,R,ugm-3
21-01-1990,16:00,36,R,ugm-3
21-01-1990,17:00,36,R,ugm-3
21-01-1990,18:00,38,R,ugm-3
21-01-1990,19:00,42,R,ugm-3
21-01-1990,20:00,46,R,ugm-3
21-01-1990,21:00,46,R,ugm-3
21-01-1990,22:00,48,R,ugm-3
21-01-1990,23:00,50,R,ugm-3
21-01-1990,24:00,50,R,ugm-3
22-01-1990,01:00,50,R,ugm-3
22-01-1990,02:00,52,R,ugm-3
22-01-1990,03:00,52,R,ugm-3
22-01-1990,04:00,50,R,ugm-3
22-01-1990,05:00,56,R,ugm-3
22-01-1990,06:00,52,R,ugm-3
22-01-1990,07:00,52,R,ugm-3
22-01-1990,08:00,50,R,ugm-3
22-01-1990,09:00,40,R,ugm-3
22-01-1990,10:00,28,R,ugm-3
22-01-1990,11:00,28,R,ugm-3
22-01-1990,12:00,42,R,ugm-3
22-01-1990,13:00,44,R,ugm-3
22-01-1990,14:00,50,R,ugm-3
22-01-1990,15:00,50,R,ugm-3
22-01-1990,16:00,50,R,ugm-3
22-01-1990,17:00,38,R,ugm-3
22-01-1990,18:00,20,R,ugm-3
22-01-1990,19:00,8,R,ugm-3
22-01-1990,20:00,18,R,ugm-3
22-01-1990,21:00,32,R,ugm-3
22-01-1990,22:00,42,R,ugm-3
22-01-1990,23:00,48,R,ugm-3
22-01-1990,24:00,48,R,ugm-3
23-01-1990,01:00,44,R,ugm-3
23-01-1990,02:00,42,R,ugm-3
23-01-1990,03:00,48,R,ugm-3
23-01-1990,04:00,52,R,ugm-3
23-01-1990,05:00,56,R,ugm-3
23-01-1990,06:00,60,R,ugm-3
23-01-1990,07:00,62,R,ugm-3
23-01-1990,08:00,58,R,ugm-3
23-01-1990,09:00,64,R,ugm-3
23-01-1990,10:00,64,R,ugm-3
23-01-1990,11:00,62,R,ugm-3
23-01-1990,12:00,56,R,ugm-3
23-01-1990,13:00,66,R,ugm-3
23-01-1990,14:00,64,R,ugm-3
23-01-1990,15:00,60,R,ugm-3
23-01-1990,16:00,60,R,ugm-3
23-01-1990,17:00,56,R,ugm-3
23-01-1990,18:00,52,R,ugm-3
23-01-1990,19:00,42,R,ugm-3
23-01-1990,20:00,32,R,ugm-3
23-01-1990,21:00,38,R,ugm-3
23-01-1990,22:00,38,R,ugm-3
23-01-1990,23:00,46,R,ugm-3
23-01-1990,24:00,48,R,ugm-3
24-01-1990,01:00,52,R,ugm-3
24-01-1990,02:00,50,R,ugm-3
24-01-1990,03:00,58,R,ugm-3
24-01-1990,04:00,60,R,ugm-3
24-01-1990,05:00,56,R,ugm-3
24-01-1990,06:00,60,R,ugm-3
24-01-1990,07:00,52,R,ugm-3
24-01-1990,08:00,50,R,ugm-3
24-01-1990,09:00,50,R,ugm-3
24-01-1990,10:00,56,R,ugm-3
24-01-1990,11:00,56,R,ugm-3
24-01-1990,12:00,58,R,ugm-3
24-01-1990,13:00,62,R,ugm-3
24-01-1990,14:00,62,R,ugm-3
24-01-1990,15:00,62,R,ugm-3
24-01-1990,16:00,62,R,ugm-3
24-01-1990,17:00,54,R,ugm-3
24-01-1990,18:00,44,R,ugm-3
24-01-1990,19:00,30,R,ugm-3
24-01-1990,20:00,30,R,ugm-3
24-01-1990,21:00,30,R,ugm-3
24-01-1990,22:00,20,R,ugm-3
24-01-1990,23:00,12,R,ugm-3
24-01-1990,24:00,28,R,ugm-3
25-01-1990,01:00,22,R,ugm-3
25-01-1990,02:00,38,R,ugm-3
25-01-1990,03:00,52,R,ugm-3
25-01-1990,04:00,58,R,ugm-3
25-01-1990,05:00,56,R,ugm-3
25-01-1990,06:00,58,R,ugm-3
25-01-1990,07:00,54,R,ugm-3
25-01-1990,08:00,44,R,ugm-3
25-01-1990,09:00,34,R,ugm-3
25-01-1990,10:00,38,R,ugm-3
25-01-1990,11:00,52,R,ugm-3
25-01-1990,12:00,,,
25-01-1990,13:00,,,
25-01-1990,14:00,66,R,ugm-3
25-01-1990,15:00,,,
25-01-1990,16:00,,,
25-01-1990,17:00,,,
25-01-1990,18:00,,,
25-01-1990,19:00,,,
25-01-1990,20:00,,,
25-01-1990,21:00,,,
25-01-1990,22:00,,,
25-01-1990,23:00,,,
25-01-1990,24:00,,,
26-01-1990,01:00,,,
26-01-1990,02:00,,,
26-01-1990,03:00,,,
26-01-1990,04:00,,,
26-01-1990,05:00,,,
26-01-1990,06:00,,,
26-01-1990,07:00,,,
26-01-1990,08:00,,,
26-01-1990,09:00,,,
26-01-1990,10:00,,,
26-01-1990,11:00,,,
26-01-1990,12:00,48,R,ugm-3
26-01-1990,13:00,54,R,ugm-3
26-01-1990,14:00,54,R,ugm-3
26-01-1990,15:00,46,R,ugm-3
26-01-1990,16:00,46,R,ugm-3
26-01-1990,17:00,38,R,ugm-3
26-01-1990,18:00,,,
26-01-1990,19:00,30,R,ugm-3
26-01-1990,20:00,24,R,ugm-3
26-01-1990,21:00,20,R,ugm-3
26-01-1990,22:00,10,R,ugm-3
26-01-1990,23:00,12,R,ugm-3
26-01-1990,24:00,28,R,ugm-3
27-01-1990,01:00,32,R,ugm-3
27-01-1990,02:00,34,R,ugm-3
27-01-1990,03:00,34,R,ugm-3
27-01-1990,04:00,32,R,ugm-3
27-01-1990,05:00,40,R,ugm-3
27-01-1990,06:00,44,R,ugm-3
27-01-1990,07:00,42,R,ugm-3
27-01-1990,08:00,42,R,ugm-3
27-01-1990,09:00,38,R,ugm-3
27-01-1990,10:00,38,R,ugm-3
27-01-1990,11:00,38,R,ugm-3
27-01-1990,12:00,40,R,ugm-3
27-01-1990,13:00,48,R,ugm-3
27-01-1990,14:00,52,R,ugm-3
27-01-1990,15:00,54,R,ugm-3
27-01-1990,16:00,50,R,ugm-3
27-01-1990,17:00,52,R,ugm-3
27-01-1990,18:00,52,R,ugm-3
27-01-1990,19:00,50,R,ugm-3
27-01-1990,20:00,48,R,ugm-3
27-01-1990,21:00,44,R,ugm-3
27-01-1990,22:00,44,R,ugm-3
27-01-1990,23:00,50,R,ugm-3
27-01-1990,24:00,50,R,ugm-3
28-01-1990,01:00,48,R,ugm-3
28-01-1990,02:00,50,R,ugm-3
28-01-1990,03:00,54,R,ugm-3
28-01-1990,04:00,64,R,ugm-3
28-01-1990,05:00,70,R,ugm-3
28-01-1990,06:00,64,R,ugm-3
28-01-1990,07:00,60,R,ugm-3
28-01-1990,08:00,30,R,ugm-3
28-01-1990,09:00,50,R,ugm-3
28-01-1990,10:00,48,R,ugm-3
28-01-1990,11:00,58,R,ugm-3
28-01-1990,12:00,60,R,ugm-3
28-01-1990,13:00,60,R,ugm-3
28-01-1990,14:00,62,R,ugm-3
28-01-1990,15:00,60,R,ugm-3
28-01-1990,16:00,58,R,ugm-3
28-01-1990,17:00,50,R,ugm-3
28-01-1990,18:00,46,R,ugm-3
28-01-1990,19:00,48,R,ugm-3
28-01-1990,20:00,36,R,ugm-3
28-01-1990,21:00,24,R,ugm-3
28-01-1990,22:00,16,R,ugm-3
28-01-1990,23:00,10,R,ugm-3
28-01-1990,24:00,4,R,ugm-3
29-01-1990,01:00,4,R,ugm-3
29-01-1990,02:00,6,R,ugm-3
29-01-1990,03:00,8,R,ugm-3
29-01-1990,04:00,14,R,ugm-3
29-01-1990,05:00,24,R,ugm-3
29-01-1990,06:00,34,R,ugm-3
29-01-1990,07:00,40,R,ugm-3
29-01-1990,08:00,,,
29-01-1990,09:00,,,
29-01-1990,10:00,54,R,ugm-3
29-01-1990,11:00,54,R,ugm-3
29-01-1990,12:00,54,R,ugm-3
29-01-1990,13:00,50,R,ugm-3
29-01-1990,14:00,52,R,ugm-3
29-01-1990,15:00,54,R,ugm-3
29-01-1990,16:00,54,R,ugm-3
29-01-1990,17:00,54,R,ugm-3
29-01-1990,18:00,54,R,ugm-3
29-01-1990,19:00,52,R,ugm-3
29-01-1990,20:00,52,R,ugm-3
29-01-1990,21:00,54,R,ugm-3
29-01-1990,22:00,54,R,ugm-3
29-01-1990,23:00,56,R,ugm-3
29-01-1990,24:00,54,R,ugm-3
30-01-1990,01:00,56,R,ugm-3
30-01-1990,02:00,56,R,ugm-3
30-01-1990,03:00,58,R,ugm-3
30-01-1990,04:00,60,R,ugm-3
30-01-1990,05:00,62,R,ugm-3
30-01-1990,06:00,58,R,ugm-3
30-01-1990,07:00,58,R,ugm-3
30-01-1990,08:00,54,R,ugm-3
30-01-1990,09:00,46,R,ugm-3
30-01-1990,10:00,42,R,ugm-3
30-01-1990,11:00,34,R,ugm-3
30-01-1990,12:00,36,R,ugm-3
30-01-1990,13:00,42,R,ugm-3
30-01-1990,14:00,50,R,ugm-3
30-01-1990,15:00,44,R,ugm-3
30-01-1990,16:00,48,R,ugm-3
30-01-1990,17:00,56,R,ugm-3
30-01-1990,18:00,50,R,ugm-3
30-01-1990,19:00,50,R,ugm-3
30-01-1990,20:00,52,R,ugm-3
30-01-1990,21:00,54,R,ugm-3
30-01-1990,22:00,56,R,ugm-3
30-01-1990,23:00,58,R,ugm-3
30-01-1990,24:00,58,R,ugm-3
31-01-1990,01:00,62,R,ugm-3
31-01-1990,02:00,62,R,ugm-3
31-01-1990,03:00,72,R,ugm-3
31-01-1990,04:00,66,R,ugm-3
31-01-1990,05:00,62,R,ugm-3
31-01-1990,06:00,64,R,ugm-3
31-01-1990,07:00,70,R,ugm-3
31-01-1990,08:00,66,R,ugm-3
31-01-1990,09:00,62,R,ugm-3
31-01-1990,10:00,64,R,ugm-3
31-01-1990,11:00,62,R,ugm-3
31-01-1990,12:00,58,R,ugm-3
31-01-1990,13:00,64,R,ugm-3
31-01-1990,14:00,60,R,ugm-3
31-01-1990,15:00,60,R,ugm-3
31-01-1990,16:00,58,R,ugm-3
31-01-1990,17:00,60,R,ugm-3
31-01-1990,18:00,44,R,ugm-3
31-01-1990,19:00,54,R,ugm-3
31-01-1990,20:00,52,R,ugm-3
31-01-1990,21:00,60,R,ugm-3
31-01-1990,22:00,62,R,ugm-3
31-01-1990,23:00,56,R,ugm-3
31-01-1990,24:00,46,R,ugm-3
01-02-1990,01:00,52,R,ugm-3
01-02-1990,02:00,50,R,ugm-3
01-02-1990,03:00,52,R,ugm-3
01-02-1990,04:00,50,R,ugm-3
01-02-1990,05:00,48,R,ugm-3
01-02-1990,06:00,46,R,ugm-3
01-02-1990,07:00,48,R,ugm-3
01-02-1990,08:00,52,R,ugm-3
01-02-1990,09:00,46,R,ugm-3
01-02-1990,10:00,46,R,ugm-3
01-02-1990,11:00,50,R,ugm-3
01-02-1990,12:00,54,R,ugm-3
01-02-1990,13:00,58,R,ugm-3
01-02-1990,14:00,60,R,ugm-3
01-02-1990,15:00,58,R,ugm-3
01-02-1990,16:00,58,R,ugm-3
01-02-1990,17:00,58,R,ugm-3
01-02-1990,18:00,56,R,ugm-3
01-02-1990,19:00,54,R,ugm-3
01-02-1990,20:00,58,R,ugm-3
01-02-1990,21:00,58,R,ugm-3
01-02-1990,22:00,56,R,ugm-3
01-02-1990,23:00,56,R,ugm-3
01-02-1990,24:00,58,R,ugm-3
02-02-1990,01:00,62,R,ugm-3
02-02-1990,02:00,62,R,ugm-3
02-02-1990,03:00,62,R,ugm-3
02-02-1990,04:00,62,R,ugm-3
02-02-1990,05:00,58,R,ugm-3
02-02-1990,06:00,60,R,ugm-3
02-02-1990,07:00,58,R,ugm-3
02-02-1990,08:00,52,R,ugm-3
02-02-1990,09:00,46,R,ugm-3
02-02-1990,10:00,32,R,ugm-3
02-02-1990,11:00,40,R,ugm-3
02-02-1990,12:00,52,R,ugm-3
02-02-1990,13:00,58,R,ugm-3
02-02-1990,14:00,62,R,ugm-3
02-02-1990,15:00,64,R,ugm-3
02-02-1990,16:00,56,R,ugm-3
02-02-1990,17:00,38,R,ugm-3
02-02-1990,18:00,32,R,ugm-3
02-02-1990,19:00,40,R,ugm-3
02-02-1990,20:00,30,R,ugm-3
02-02-1990,21:00,20,R,ugm-3
02-02-1990,22:00,24,R,ugm-3
02-02-1990,23:00,30,R,ugm-3
02-02-1990,24:00,30,R,ugm-3
03-02-1990,01:00,28,R,ugm-3
03-02-1990,02:00,30,R,ugm-3
03-02-1990,03:00,42,R,ugm-3
03-02-1990,04:00,44,R,ugm-3
03-02-1990,05:00,54,R,ugm-3
03-02-1990,06:00,56,R,ugm-3
03-02-1990,07:00,56,R,ugm-3
03-02-1990,08:00,50,R,ugm-3
03-02-1990,09:00,46,R,ugm-3
03-02-1990,10:00,66,R,ugm-3
03-02-1990,11:00,70,R,ugm-3
03-02-1990,12:00,46,R,ugm-3
03-02-1990,13:00,42,R,ugm-3
03-02-1990,14:00,52,R,ugm-3
03-02-1990,15:00,60,R,ugm-3
03-02-1990,16:00,66,R,ugm-3
03-02-1990,17:00,56,R,ugm-3
03-02-1990,18:00,32,R,ugm-3
03-02-1990,19:00,10,R,ugm-3
03-02-1990,20:00,20,R,ugm-3
03-02-1990,21:00,26,R,ugm-3
03-02-1990,22:00,32,R,ugm-3
03-02-1990,23:00,42,R,ugm-3
03-02-1990,24:00,24,R,ugm-3
04-02-1990,01:00,16,R,ugm-3
04-02-1990,02:00,20,R,ugm-3
04-02-1990,03:00,24,R,ugm-3
04-02-1990,04:00,28,R,ugm-3
04-02-1990,05:00,42,R,ugm-3
04-02-1990,06:00,52,R,ugm-3
04-02-1990,07:00,54,R,ugm-3
04-02-1990,08:00,58,R,ugm-3
04-02-1990,09:00,58,R,ugm-3
04-02-1990,10:00,58,R,ugm-3
04-02-1990,11:00,58,R,ugm-3
04-02-1990,12:00,56,R,ugm-3
04-02-1990,13:00,60,R,ugm-3
04-02-1990,14:00,62,R,ugm-3
04-02-1990,15:00,58,R,ugm-3
04-02-1990,16:00,56,R,ugm-3
04-02-1990,17:00,54,R,ugm-3
04-02-1990,18:00,54,R,ugm-3
04-02-1990,19:00,52,R,ugm-3
04-02-1990,20:00,50,R,ugm-3
04-02-1990,21:00,50,R,ugm-3
04-02-1990,22:00,54,R,ugm-3
04-02-1990,23:00,52,R,ugm-3
04-02-1990,24:00,50,R,ugm-3
05-02-1990,01:00,50,R,ugm-3
05-02-1990,02:00,56,R,ugm-3
05-02-1990,03:00,54,R,ugm-3
05-02-1990,04:00,48,R,ugm-3
05-02-1990,05:00,52,R,ugm-3
05-02-1990,06:00,50,R,ugm-3
05-02-1990,07:00,52,R,ugm-3
05-02-1990,08:00,50,R,ugm-3
05-02-1990,09:00,50,R,ugm-3
05-02-1990,10:00,46,R,ugm-3
05-02-1990,11:00,44,R,ugm-3
05-02-1990,12:00,44,R,ugm-3
05-02-1990,13:00,44,R,ugm-3
05-02-1990,14:00,48,R,ugm-3
05-02-1990,15:00,50,R,ugm-3
05-02-1990,16:00,42,R,ugm-3
05-02-1990,17:00,38,R,ugm-3
05-02-1990,18:00,44,R,ugm-3
05-02-1990,19:00,36,R,ugm-3
05-02-1990,20:00,34,R,ugm-3
05-02-1990,21:00,20,R,ugm-3